[[{"header":{"parameterUnit":"m.s-1","parameterCategory":1,"la1":30.2991,"la2":30.254,"lo1":-89.0895,"lo2":-89.0444,"dy":0.0017,"dx":0.0017,"nx":28,"ny":28,"refTime":"2023-08-30T03:00:00:Z","depth":0,"parameterNumber":2,"parameterNumberName":"U-component_of_WINDS"},"data":[0,0,0,0,0,0,0,0,0,0,0,0,0,0,0,0,0,0,0,0,0,0,0,0,0,0,0,0,0,0,0,0,0,0,0,0,0,0,0,0,0,0,0,0,0,0,0,0,0,0,0,0,0,0,0,0,0,0,-1.6809,-1.6809,0,-1.6837,-1.6837,-1.6837,-1.6723,-1.6719,-1.6716,-1.6713,-1.6751,-1.6755,-1.6759,0,0,0,0,0,0,0,0,0,0,0,0,0,-1.6666,-1.667,-1.6809,-1.6809,-1.681,-1.6837,-1.6837,-1.6837,-1.6723,-1.6719,-1.6715,-1.6711,-1.675,-1.6755,-1.676,0,0,0,0,0,0,0,0,0,0,0,0,0,-1.6715,-1.6671,-1.6809,-1.6756,-1.6751,-1.6836,-1.6837,-1.6837,-1.6724,-1.6719,-1.6714,-1.6709,-1.6748,-1.6754,-1.676,-1.6901,0,0,-1.6779,-1.6782,0,0,0,0,0,0,0,0,-1.6712,-1.672,-1.6763,-1.676,-1.6755,-1.6771,-1.68,-1.6859,-1.6726,-1.6735,-1.6713,-1.6707,-1.6762,-1.6767,-1.6784,-1.6903,-1.6904,-1.678,-1.6784,-1.6786,-1.6788,0,0,0,0,0,0,0,-1.6709,-1.6719,-1.682,-1.6764,-1.6759,-1.6734,-1.6735,-1.6811,-1.6777,-1.6734,-1.6725,-1.673,-1.6759,-1.6778,-1.6784,-1.6905,-1.678,-1.6785,-1.6789,-1.6792,-1.7141,-1.7146,0,0,0,0,0,0,-1.6711,-1.6716,-1.6819,-1.6821,-1.672,-1.674,-1.6742,-1.6771,-1.6776,-1.6772,-1.6734,-1.6724,-1.677,-1.6777,-1.6785,-1.695,-1.6786,-1.6792,-1.6796,-1.7135,-1.7142,-1.7148,0,0,0,0,0,0,-1.6709,-1.6722,-1.6818,-1.6766,-1.6777,-1.6748,-1.6782,-1.6774,-1.6793,-1.6776,-1.677,-1.6759,-1.6766,-1.6776,-1.6872,-1.6949,-1.6795,-1.6801,-1.7129,-1.7137,-1.7145,-1.7281,0,0,0,0,0,0,-1.6705,-1.6721,-1.6773,-1.6768,-1.678,-1.6903,-1.6787,-1.6778,-1.6803,-1.679,-1.6798,-1.6795,-1.6763,-1.6863,-1.6878,-1.6955,-1.6806,-1.7122,-1.7133,-1.7142,-1.7269,-1.7293,-1.7313,0,0,0,0,0,-1.6701,-1.6812,-1.6776,-1.6789,-1.6843,-1.6907,-1.6914,-1.6873,-1.6809,-1.6862,-1.6851,-1.6794,-1.6938,-1.6874,-1.689,-1.697,-1.7117,-1.713,-1.7142,-1.726,-1.7288,-1.7312,0,0,0,0,0,0,-1.683,-1.681,-1.677,-1.6883,-1.6897,-1.6888,-1.6953,-1.6904,-1.694,-1.6927,-1.6877,-1.688,-1.6985,-1.6987,-1.6916,-1.7107,-1.7017,-1.7033,-1.7101,-1.7128,-1.7149,-1.7147,-1.6811,0,0,0,0,0,-1.687,-1.6922,-1.6903,-1.7005,-1.7014,-1.6982,-1.7009,-1.6975,-1.699,-1.6996,-1.6993,-1.7011,-1.7061,-1.7094,-1.7139,-1.7269,-1.727,-1.7332,-1.7353,-1.7371,-1.7386,-1.7456,-1.7483,-1.7189,-1.7189,-1.7188,0,0,-1.6957,-1.6953,-1.6989,-1.703,-1.7038,-1.7094,-1.6988,-1.7053,-1.7096,-1.7007,-1.7097,-1.7095,-1.7113,-1.7226,-1.7276,-1.7231,-1.7467,-1.7387,-1.7401,-1.7407,-1.7471,-1.7499,-1.7524,-1.7197,-1.7196,-1.7194,0,0,-1.7143,-1.7144,-1.7228,-1.7237,-1.7248,-1.7226,-1.7247,-1.7245,-1.7239,-1.7327,-1.7262,-1.7314,-1.74,-1.7415,-1.7434,-1.7625,-1.7575,-1.7641,-1.7755,-1.7823,-1.7846,-1.7867,-1.7936,-1.7961,-1.7656,-1.7657,-1.7657,0,-1.725,-1.7329,-1.7279,-1.7347,-1.7368,-1.7287,-1.7374,-1.7386,-1.7413,-1.7431,-1.7379,-1.7484,-1.7491,-1.7607,-1.7653,-1.7671,-1.7695,-1.7641,-1.7846,-1.7866,-1.7885,-1.795,-1.7976,-1.7665,-1.7664,-1.7663,-1.7662,0,-1.7461,-1.7517,-1.7585,-1.7608,-1.7637,-1.7715,-1.7678,-1.7714,-1.7678,-1.7663,-1.7755,-1.7759,-1.7803,-1.7828,-1.7795,-1.794,-1.7912,-1.7854,-1.7763,-1.7922,-1.7982,-1.8007,-1.7676,-1.7673,-1.7671,-1.7669,0,0,-1.773,-1.7723,-1.7749,-1.7758,-1.7764,-1.7809,-1.7883,-1.7923,-1.7955,-1.7976,-1.8039,-1.8113,-1.8059,-1.8081,-1.8049,-1.8109,-1.8261,-1.8044,-1.8044,-1.8085,-1.8422,-1.8465,-1.8495,-1.8227,-1.8231,-1.8235,-1.842,0,-1.7912,-1.8035,-1.7992,-1.8119,-1.8172,-1.8095,-1.8161,-1.8173,-1.8161,-1.8206,-1.8194,-1.8247,-1.8172,-1.8184,-1.824,-1.823,-1.8328,-1.8216,-1.8287,-1.829,-1.8285,-1.8526,-1.8572,-1.8747,-1.8444,-1.8448,-1.845,0,-1.8142,-1.8168,-1.83,-1.8296,-1.8316,-1.8375,-1.8408,-1.8451,-1.8464,-1.8451,-1.8475,-1.843,-1.8506,-1.8415,-1.8519,-1.8444,-1.8471,-1.8471,-1.8477,-1.8482,-1.838,-1.8539,-1.8802,-1.8828,-1.8487,-1.8484,-1.8482,0,-1.8325,-1.8395,-1.8482,-1.8492,-1.849,-1.8533,-1.8535,-1.8543,-1.8569,-1.8599,-1.8616,-1.8656,-1.8678,-1.8711,-1.8679,-1.8615,-1.879,-1.8695,-1.8783,-1.8784,-1.8824,-1.8822,-1.9095,-1.884,-1.884,-1.8839,-1.8839,0,-1.8534,-1.8618,-1.8564,-1.8618,-1.871,-1.866,-1.8754,-1.8748,-1.8755,-1.8809,-1.8746,-1.8799,-1.8753,-1.8802,-1.8778,-1.8869,-1.888,-1.8873,-1.8866,-1.8879,-1.888,-1.8896,-1.8884,-1.8846,-1.8845,-1.8843,-1.8842,0,-1.8755,-1.8722,-1.8812,-1.8801,-1.8801,-1.8869,-1.8862,-1.8913,-1.8895,-1.8964,-1.8977,-1.8951,-1.9006,-1.8977,-1.9034,-1.9018,-1.9136,-1.9112,-1.913,-1.9124,-1.9214,-1.9206,-1.9507,-1.9545,-1.9266,-1.9269,-1.9271,0,-1.889,-1.8952,-1.8947,-1.8977,-1.8981,-1.903,-1.9056,-1.901,-1.904,-1.9059,-1.9109,-1.9157,-1.9193,-1.9284,-1.9272,-1.9316,-1.9293,-1.9396,-1.93,-1.9311,-1.9296,-1.9292,-1.9299,-1.9416,-1.9419,-1.9422,-1.9424,0,-1.9135,-1.9115,-1.9152,-1.9184,-1.9216,-1.924,-1.9259,-1.9288,-1.9242,-1.928,-1.9332,-1.936,-1.9417,-1.9466,-1.9504,-1.9509,-1.9461,-1.9454,-1.9477,-1.9491,-1.9499,-1.9496,-1.9184,-1.9448,-1.9445,-1.9443,-1.9442,-1.9441,-1.9317,-1.9368,-1.9372,-1.9416,-1.9425,-1.9444,-1.9491,-1.9478,-1.952,-1.956,-1.9532,-1.9595,-1.9607,-1.9652,-1.9663,-1.9714,-1.9673,-1.9706,-1.9715,-1.9724,-1.9736,-1.949,-1.9721,-1.972,-1.9719,-1.9719,-1.9718,0,-1.9558,-1.9556,-1.9597,-1.9624,-1.9659,-1.9606,-1.9625,-1.9659,-1.9714,-1.9728,-1.9763,-1.9825,-1.9872,-1.9864,-1.9907,-1.995,-1.9929,-1.9963,-1.996,-1.9962,-1.977,-1.9745,-1.9979,-1.9979,-1.9979,-1.9979,-1.9979,-1.9979,-1.9688,-1.9771,-1.9752,-1.9841,-1.9839,-1.9897,-1.9913,-1.9931,-1.9941,-2.0012,-2.0049,-2.0042,-2.0048,-2.0091,-2.0133,-2.013,-2.0149,-2.0192,-2.0181,-2.0001,-1.9976,-1.9951,-1.9928,-2.0196,-2.0197,-2.0369,-2.037,-2.0372]},{"header":{"parameterUnit":"m.s-1","parameterCategory":1,"la1":30.2991,"la2":30.254,"lo1":-89.0895,"lo2":-89.0444,"dy":0.0017,"dx":0.0017,"nx":28,"ny":28,"refTime":"2023-08-30T03:00:00:Z","depth":0,"parameterNumber":3,"parameterNumberName":"V-component_of_WINDS"},"data":[0,0,0,0,0,0,0,0,0,0,0,0,0,0,0,0,0,0,0,0,0,0,0,0,0,0,0,0,0,0,0,0,0,0,0,0,0,0,0,0,0,0,0,0,0,0,0,0,0,0,0,0,0,0,0,0,0,0,-3.3104,-3.3104,0,-3.3058,-3.3057,-3.3057,-3.2977,-3.2975,-3.2974,-3.2972,-3.2924,-3.2924,-3.2924,0,0,0,0,0,0,0,0,0,0,0,0,0,-3.3122,-3.3122,-3.3104,-3.3104,-3.3103,-3.3058,-3.3057,-3.3056,-3.2977,-3.2975,-3.2973,-3.2972,-3.2924,-3.2924,-3.2924,0,0,0,0,0,0,0,0,0,0,0,0,0,-3.3099,-3.3122,-3.3104,-3.3058,-3.3053,-3.3058,-3.3057,-3.3056,-3.2977,-3.2975,-3.2973,-3.2971,-3.2924,-3.2924,-3.2924,-3.297,0,0,-3.2924,-3.2924,0,0,0,0,0,0,0,0,-3.31,-3.3098,-3.3065,-3.3061,-3.3056,-3.3021,-3.3045,-3.3027,-3.2978,-3.3006,-3.2972,-3.297,-3.2958,-3.2955,-3.2951,-3.2967,-3.2965,-3.2924,-3.2924,-3.2924,-3.2924,0,0,0,0,0,0,0,-3.3102,-3.31,-3.3086,-3.3065,-3.3059,-3.3038,-3.3033,-3.3041,-3.2995,-3.3003,-3.2998,-3.2993,-3.2955,-3.2951,-3.2949,-3.2965,-3.2924,-3.2924,-3.2925,-3.2925,-3.3013,-3.3015,0,0,0,0,0,0,-3.311,-3.3101,-3.3087,-3.3084,-3.3073,-3.304,-3.3034,-3.3034,-3.2995,-3.2987,-3.2995,-3.299,-3.2952,-3.2949,-3.2947,-3.2997,-3.2924,-3.2925,-3.2925,-3.3011,-3.3014,-3.3016,0,0,0,0,0,0,-3.3111,-3.311,-3.3089,-3.3091,-3.3087,-3.3042,-3.3044,-3.3035,-3.3031,-3.2988,-3.298,-3.3,-3.295,-3.2947,-3.2964,-3.2994,-3.2925,-3.2925,-3.3008,-3.3012,-3.3015,-3.3098,0,0,0,0,0,0,-3.3112,-3.3111,-3.3129,-3.3092,-3.3087,-3.3108,-3.3045,-3.3035,-3.3031,-3.3024,-3.2991,-3.2983,-3.2948,-3.2964,-3.2964,-3.2993,-3.2925,-3.3005,-3.301,-3.3014,-3.3093,-3.3104,-3.3114,0,0,0,0,0,-3.3113,-3.3154,-3.313,-3.3129,-3.3109,-3.311,-3.3107,-3.3066,-3.3034,-3.3051,-3.3023,-3.2984,-3.2991,-3.2967,-3.2966,-3.2996,-3.3003,-3.3009,-3.3013,-3.3088,-3.3102,-3.3114,0,0,0,0,0,0,-3.3196,-3.3149,-3.3121,-3.3152,-3.3136,-3.3097,-3.3117,-3.3083,-3.3075,-3.3068,-3.3017,-3.301,-3.3033,-3.3016,-3.299,-3.3036,-3.2991,-3.2996,-3.3047,-3.306,-3.3071,-3.3075,-3.2925,0,0,0,0,0,-3.3218,-3.3223,-3.3181,-3.3213,-3.3206,-3.3163,-3.3162,-3.3132,-3.3112,-3.3105,-3.3078,-3.3061,-3.3058,-3.3058,-3.3054,-3.3089,-3.308,-3.3108,-3.3119,-3.3128,-3.3133,-3.3149,-3.3161,-3.3033,-3.3033,-3.3033,0,0,-3.3263,-3.3238,-3.3245,-3.3229,-3.3212,-3.3218,-3.3158,-3.3167,-3.3171,-3.3106,-3.3121,-3.31,-3.3077,-3.3103,-3.3113,-3.3089,-3.3166,-3.3134,-3.3142,-3.3142,-3.3155,-3.3167,-3.3178,-3.3036,-3.3036,-3.3035,0,0,-3.3349,-3.3331,-3.3354,-3.3339,-3.3314,-3.3285,-3.3291,-3.3256,-3.324,-3.3253,-3.3204,-3.3207,-3.3205,-3.3189,-3.3181,-3.3258,-3.3221,-3.3258,-3.3314,-3.3329,-3.3339,-3.3348,-3.3375,-3.3385,-3.3263,-3.3263,-3.3263,0,-3.3409,-3.3417,-3.3371,-3.3383,-3.3377,-3.3317,-3.334,-3.3326,-3.3302,-3.3298,-3.3272,-3.3266,-3.3246,-3.3266,-3.3285,-3.328,-3.3284,-3.3262,-3.3342,-3.335,-3.3357,-3.3382,-3.3392,-3.3268,-3.3267,-3.3267,-3.3266,0,-3.3491,-3.3497,-3.3518,-3.3496,-3.3491,-3.3509,-3.3464,-3.3465,-3.3434,-3.3407,-3.342,-3.3394,-3.3382,-3.3384,-3.3355,-3.34,-3.3386,-3.3351,-3.3304,-3.3375,-3.3397,-3.3407,-3.3274,-3.3273,-3.3271,-3.327,0,0,-3.3631,-3.358,-3.3589,-3.3577,-3.3545,-3.3548,-3.3561,-3.3549,-3.3551,-3.3535,-3.3544,-3.3542,-3.3508,-3.3499,-3.3466,-3.348,-3.3541,-3.3443,-3.3441,-3.3462,-3.3588,-3.3615,-3.3627,-3.3515,-3.3517,-3.3518,-3.359,0,-3.371,-3.3732,-3.3689,-3.372,-3.3724,-3.3666,-3.3677,-3.3658,-3.3632,-3.363,-3.3601,-3.36,-3.3557,-3.3551,-3.3561,-3.3532,-3.3566,-3.3525,-3.3523,-3.3523,-3.3532,-3.3639,-3.3668,-3.3738,-3.3598,-3.36,-3.3601,0,-3.3807,-3.3796,-3.3827,-3.379,-3.379,-3.3801,-3.3786,-3.3786,-3.3761,-3.3741,-3.3729,-3.369,-3.3698,-3.3652,-3.3663,-3.3636,-3.3632,-3.3617,-3.3618,-3.3618,-3.3568,-3.3642,-3.3759,-3.377,-3.3614,-3.3613,-3.3612,0,-3.3906,-3.3898,-3.3915,-3.3907,-3.3864,-3.3873,-3.3856,-3.3829,-3.3824,-3.3809,-3.3805,-3.3792,-3.3785,-3.3775,-3.3733,-3.3703,-3.3748,-3.3698,-3.3731,-3.3732,-3.3745,-3.3745,-3.3864,-3.3741,-3.374,-3.374,-3.374,0,-3.4,-3.4022,-3.3959,-3.397,-3.3992,-3.3941,-3.3963,-3.394,-3.3916,-3.392,-3.3868,-3.3872,-3.3815,-3.3813,-3.3779,-3.3792,-3.379,-3.3773,-3.3764,-3.3778,-3.3781,-3.3776,-3.3771,-3.3743,-3.3742,-3.3742,-3.3741,0,-3.4116,-3.4075,-3.409,-3.4047,-3.4037,-3.4055,-3.4018,-3.4025,-3.3994,-3.4,-3.3998,-3.3951,-3.3945,-3.3901,-3.3885,-3.3862,-3.3888,-3.3869,-3.3897,-3.3891,-3.3926,-3.3924,-3.4047,-3.4061,-3.3929,-3.393,-3.3931,0,-3.418,-3.4195,-3.4153,-3.4152,-3.4137,-3.4137,-3.4131,-3.408,-3.4076,-3.4047,-3.4058,-3.4047,-3.4037,-3.403,-3.3994,-3.3981,-3.3961,-3.4005,-3.3959,-3.3973,-3.3962,-3.3962,-3.3963,-3.4016,-3.4018,-3.4019,-3.402,0,-3.4297,-3.4275,-3.4269,-3.4255,-3.425,-3.4236,-3.4219,-3.4221,-3.4165,-3.4162,-3.4156,-3.4148,-3.4131,-3.4121,-3.4101,-3.4081,-3.4042,-3.4034,-3.4041,-3.4057,-3.4073,-3.4065,-3.3925,-3.4032,-3.4031,-3.403,-3.403,-3.4029,-3.4389,-3.4399,-3.4371,-3.4365,-3.4347,-3.4332,-3.4336,-3.4305,-3.4299,-3.4282,-3.4252,-3.4249,-3.4221,-3.419,-3.4173,-3.4169,-3.4146,-3.4156,-3.4158,-3.4162,-3.4169,-3.4072,-3.4165,-3.4164,-3.4164,-3.4164,-3.4163,0,-3.4504,-3.4482,-3.4477,-3.4455,-3.445,-3.4411,-3.439,-3.4388,-3.4387,-3.4364,-3.4354,-3.4345,-3.4334,-3.4295,-3.428,-3.4284,-3.4266,-3.4282,-3.4282,-3.4278,-3.4191,-3.4187,-3.4298,-3.4298,-3.4298,-3.4298,-3.4298,-3.4298,-3.4563,-3.4578,-3.4552,-3.4556,-3.4534,-3.4532,-3.4522,-3.4507,-3.4488,-3.4481,-3.4472,-3.4446,-3.4416,-3.4398,-3.4386,-3.4374,-3.4371,-3.4394,-3.4377,-3.4297,-3.4284,-3.4272,-3.4268,-3.4394,-3.4394,-3.4464,-3.4465,-3.4465]}]]